www.pogodaiklimat.ru
ПОГОДА в Норт-Кингстауне
Время
и дата
14:50 01.02
15:50 01.02
16:50 01.02
17:50 01.02
18:50 01.02
19:50 01.02
20:50 01.02
21:50 01.02
22:50 01.02
07:50 02.02
10:50 02.02
11:50 02.02
12:50 02.02
13:50 02.02
14:50 02.02
15:50 02.02
16:50 02.02
17:50 02.02
18:50 02.02
19:50 02.02
20:50 02.02
21:50 02.02
22:50 02.02
07:50 03.02
08:50 03.02
09:50 03.02
10:50 03.02
11:50 03.02
12:50 03.02
13:50 03.02
14:50 03.02
15:50 03.02
16:50 03.02
17:50 03.02
18:50 03.02
19:50 03.02
20:50 03.02
21:50 03.02
22:50 03.02
08:50 04.02
09:50 04.02
10:50 04.02
11:50 04.02
12:50 04.02
13:50 04.02
14:50 04.02
15:50 04.02
16:50 04.02
Ветер
(напр.,м/с)
Видим. Явления Облачность Т
(С)
Тd
(С)
f
(%)
Тe
(С)
Тes
(С)
Комфортность P
(гПа)
Po
(гПа)
Тmin
(С)
Tmax
(С)
R
(мм)
R24
(мм)
S
(см)
ЮЗ 3 16 км ясно +1.0 -10.0 44 -3 0 1021.5
СЗ 5 16 км ясно +2.0 -11.0 37 -3 -2 1021.8
СЗ 6 16 км ясно +1.0 -12.0 37 -4 -4 1022.9
СЗ 3 16 км ясно 0.0 -13.0 37 -4 -4 1023.2
СЗ 3 16 км ясно 0.0 -12.0 40 -4 -4 1023.5
СЗ 4 16 км ясно -1.0 -12.0 43 -6 -6 1023.9
СЗ 3 16 км ясно -1.0 -12.0 43 -5 -5 1023.9
штиль 0 16 км ясно -2.0 -12.0 46 -2 -2 1024.6
штиль 0 16 км ясно -2.0 -13.0 43 -2 -2 1024.6
ЮЗ 3 16 км 8/0 7500 m
[Ci]
-3.0 -11.0 54 -8 -8 1024.2
ЮЗ 4 16 км 8/0 7500 m
[Ci]
+2.0 -10.0 41 -2 0 1021.8
ЮЗ 5 16 км 5/0 7500 m
[Ci]
+3.0 -9.0 41 -1 +1 1020.8
ЮЗ 5 16 км 2/0 7500 m
[Ci]
+4.0 -7.0 45 0 +3 1019.1
ЮЗ 9 16 км ясно +3.0 -8.0 44 -3 -3 1016.4
ЮЗ 9 16 км ясно +3.0 -8.0 44 -3 -3 1016.1
ЮЗ 6
{10}
16 км ясно +3.0 -8.0 44 -2 -1 1014.7
ЮЗ 8 16 км 5/2 1500 m
[Ci]
+2.0 -10.0 41 -4 -4 1013.4
ЮЗ 6 16 км 5/2 1500 m
[Ci]
+1.0 -10.0 44 -5 -5 1013.7
ЮЗ 5 16 км 5/2 1500 m
[Ci]
+1.0 -9.0 47 -4 -4 1012.0
ЮЗ 6 16 км ясно +1.0 -7.0 55 -5 -5 1011.0
ЮЗ 6 16 км ясно +1.0 -9.0 47 -5 -5 1010.0
ЮЗ 6 16 км ясно +1.0 -9.0 47 -5 -5 1008.6
ЮЗ 3 16 км ясно +1.0 -9.0 47 -3 -3 1008.0
СЗ 10
{14}
16 км 5/5 1350 м -3.0 -14.0 42 -11 -11 1008.6
СЗ 11
{18}
16 км 5/5 1350 м -5.0 -23.0 23 -14 -14 1010.0
С 10
{17}
16 км ясно -5.0 -28.0 15 -13 -13 1011.4
С 10
{18}
16 км ясно -6.0 -31.0 12 -15 -15 1012.0
СЗ 12
{19}
16 км ясно -7.0 -31.0 13 -17 -17 1011.4
СЗ 10
{15}
16 км ясно -7.0 -30.0 14 -16 -16 1011.0
СЗ 13
{19}
16 км ясно -7.0 -30.0 14 -17 -17 1012.4
СЗ 11
{17}
16 км ясно -8.0 -26.0 22 -18 -18 1012.4
СЗ 11
{17}
16 км ясно -9.0 -26.0 24 -19 -19 1014.1
СЗ 11
{17}
16 км ясно +10.0 -27.0 5 +6 +6 1015.4
С 12
{17}
16 км ясно -10.0 -26.0 26 -21 -21 1017.8
С 13
{18}
16 км ясно -13.0 -26.0 33 -26 -26 1019.1
С 13
{22}
16 км ясно -14.0 -27.0 32 -27 -27 1020.5
С 13
{22}
16 км 8/8 1950 м -15.0 -27.0 35 -28 -28 1022.2
С 13
{20}
16 км 8/0 2100 m
[Ac]
-16.0 -27.0 38 -30 -30 1022.5
С 13
{19}
16 км 8/0 2100 m
[Ac]
-17.0 -29.0 34 -31 -31 опасность
обморожения
1023.9
СЗ 7 16 км ясно -19.0 -34.0 25 -30 -30 1034.7
СЗ 10 16 км ясно -17.0 -31.0 29 -30 -30 1035.0
СЗ 9 16 км ясно -15.0 -30.0 27 -26 -26 1035.0
СЗ 6 16 км 2/0 7500 m
[Ci]
-13.0 -29.0 25 -22 -20 1033.7
СЗ 5 16 км 2/0 7500 m
[Ci]
-12.0 -28.0 25 -20 -17 1033.7
СЗ 6 16 км 8/0 7500 m
[Ci]
-11.0 -31.0 17 -19 -18 1032.3
штиль 0 16 км 8/0 7500 m
[Ci]
-10.0 -28.0 21 -10 -6 1032.7
З 4 16 км 8/0 7500 m
[Ci]
-9.0 -28.0 20 -15 -14 1032.7
СЗ 6 16 км 8/0 4800 m
[Ac]
-10.0 -28.0 21 -18 -18 1033.0
Местоположение метеостанции Quonset State Airport: широта 41.6000 долгота -71.4200 высота над уровнем моря 6 м.
В архиве по умолчанию представлена погода в Норт-Кингстауне за последние 1-2 суток. Обновление информации о фактической погоде в базе происходит ежечасно! Архивные данные за месяц целиком и за предыдущие месяцы Вы можете получить, выбрав интересующий диапазон дат из раскрывающегося списка и нажав кнопку "Ввод!".
Внимание! Архив погоды МЕТАР в базе сайта по станциям, не включенным в климатический монитор, хранится не более 60 дней. Нет смысла пытаться выбрать более раннюю дату.
*Определитесь, кто Вы:
Внимание! Время в таблицах - местное (без учета летнего времени). Для получения всемирного времени необходимо вычесть поправку, которая равна -5 ч.
Смотрите также архив погоды в соседних городах и на ближайших метеорологических станциях:
Партнеры нашего сайта:      
Пояснения к столбцам:
  • Ветер - указаны скорость ветра в м/с - средняя за 10 мин, порывы в срок и между сроками (в фигурных скобках) и направление, откуда дует ветер: С - северный,
  • СВ - северо-восточный, В - восточный, ЮВ - юго-восточный, Ю - южный, ЮЗ - юго-западный, З - западный, СЗ - северо-западный.
  • Видимость - горизонтальная дальность видимости в метрах или километрах. При видимости от 1 до 10 км при отсутствии осадков обычно наблюдается дымка, при ухудшении видимости до 1 км и менее - туман. В сухую погоду видимость может ухудшаться дымом, пылью или мглою.
  • Явления - указаны атмосферные явления, наблюдавшиеся в срок или в последний час перед сроком; фигурными скобками обозначены явления, наблюдавшиеся между сроками (за 1-3 часа до срока); квадратными скобками обозначены град или гололедные отложения с указанием их диаметра в мм.
  • Облачность - указаны через наклонную черту общая и нижняя облачность в баллах и высота нижней границы облаков в метрах; квадратными скобками обозначены формы облаков: Ci - перистые, Cs - перисто-слоистые, Cc - перисто-кучевые, Ac - высококучевые, As - высокослоистые, Sc - слоисто-кучевые, Ns - слоисто-дождевые, Cu - кучевые, Cb - кучево-дождевые. Подробнее классификацию облаков см. в Атласе облаков (PDF).
  • T - Температура воздуха - температура, измеренная на высоте 2 м над землей.
  • Td - Температура точки росы - температура, при понижении до которой содержащийся в воздухе водяной пар достигнет насыщения.
  • f - Относительная влажность воздуха - влажноcть воздуха, измеренная на высоте 2 м над землей.
  • Te - Эффективная температура - температура, которую ощущает одетый по сезону человек в тени. Характеристика душности погоды. При расчете учитывается влияние влажности воздуха и скорости ветра на теплоощущения человека.
  • Tes - Эффективная температура на солнце - температура, которую ощущает человек, с поправкой на солнечный нагрев. Характеристика знойности погоды. Зависит от высоты солнца над горизонтом, облачности и скорости ветра. Ночью, в пасмурную погоду, а также при ветре 12 м/с и более поправка равна нулю.
  • P - Атмосферное давление - приведенное к уровню моря атмосферное давление.
  • Po - Атмосферное давление - измеренное на уровне метеостанции атмосферное давление.
  • Tmin - Минимальная температура - минимум температуры воздуха на высоте 2 м над землей.
  • Tmax - Максимальная температура - максимум температуры воздуха на высоте 2 м над землей.
  • R - Количество осадков - Количество выпавших осадков за период времени, мм. При наведении курсора мыши на число - период времени, за который выпало указанное количество осадков.
  • R24 - Количество осадков - Количество выпавших осадков за 24 часа, мм.
  • S - Снежный покров - Высота снежного покрова, см. При наведении курсора мыши на число - состояние снежного покрова и степень покрытия местности в баллах.